472  
NZUS59 KLOT 260709  
HRRLOT  
 
CHICAGO AREA WEATHER ROUNDUP  
NATIONAL WEATHER SERVICE CHICAGO/ROMEOVILLE IL  
200 AM CDT MON JUN 26 2017  
 
NOTE: "FAIR" INDICATES FEW OR NO CLOUDS BELOW 12,000 FEET WITH NO  
SIGNIFICANT WEATHER AND/OR OBSTRUCTIONS TO VISIBILITY.  
 
* THESE STATIONS ARE NOT UNDER NWS QUALITY CONTROL. THEY ALSO MAY NOT  
REPORT WEATHER SUCH AS PRECIPITATION OR FOG.  
 
ILZ005-006-012>014-019>023-260800-  
NORTHEAST ILLINOIS  
 
CITY SKY/WX TMP DP RH WIND PRES REMARKS  
OHARE PTCLDY 57 49 74 CALM 30.09F  
MIDWAY PTCLDY 58 50 75 W6 30.09F  
AURORA PTCLDY 54 50 86 SW5 30.11F  
LANSING* CLEAR 55 48 77 CALM 30.11F  
JOLIET* CLEAR 56 51 81 CALM 30.11F  
WAUKEGAN CLEAR 54 52 93 W3 30.07F  
DUPAGE AIRPORT CLEAR 55 51 86 W6 30.09F  
WHEELING PTCLDY 57 52 83 W3 30.10F  
MORRIS* CLEAR 53 49 87 W6 30.11S  
LEWIS AIRPORT* CLEAR 55 48 77 W6 30.11S  
NORTHERLY ISL N/A 60 48 64 CALM N/A  

 
 
WIZ051-052-058>065-066-070>072-260800-  
SOUTHEAST WISCONSIN  
 
CITY SKY/WX TMP DP RH WIND PRES REMARKS  
MILWAUKEE MOCLDY 57 53 86 W7 30.07S  
KENOSHA* PTCLDY 52 49 89 W6 30.08F  
RACINE* CLEAR 55 50 83 W5 30.08F  
WAUKESHA CLOUDY 52 48 87 W9 30.08F  
WEST BEND CLEAR 52 52 100 W7 30.05S  

 
 
INZ001>003-010>013-019-020-260800-  
NORTHWEST INDIANA  
 
CITY SKY/WX TMP DP RH WIND PRES REMARKS  
GARY* PTCLDY 57 49 75 S3 30.11S  
MICHIGAN CITY* NOT AVBL  
RENSSELAER* NOT AVBL  
VALPARAISO CLEAR 56 50 80 W5 30.11S  

 
 
LMZ740>746-260800-  
SOUTHERN LAKE MICHIGAN  
 
STATION/POSITION TIME SKY/WX TEMP WIND PRES VSBY  
AIR DIR/SP/G  
(UTC) (F) (DEG/KT/KT) (MB) (MI)  
HARRISON CRIB 0640 61 280/ 9/ 10 N/A  
BURNHAM HARBOR 0700 60 N/A  
CALUMET HARBOR 0642 230/ 2/ 3 1018.6F  
BURNS HARBOR 0640 63 290/ 11/ 14 1019.3S  
MICHIGAN CITY 0640 62 300/ 20/ 21 N/A  

 
 
ABBREVIATIONS USED IN REMARKS  
TC - TEMPERATURE IN CELSIUS  
WCI - WIND CHILL INDEX  
HX - HEAT INDEX  
VSB - VISIBILITY  

 
 
 
CLICK HERE TO GO TO PREVIOUS BULLETINS.

The Nexlab IL Page
The Nexlab IN Page Main Text Page